Regional Weather Roundup
Issued by NWS

Home | Current Version | Previous Version | Graphics & Text | Print | Product List | Glossary On
Versions: 1 2 3 4 5 6 7 8 9 10 11 12 13 14 15 16 17 18 19 20 21 22 23 24 25 26 27 28
000
ASUS45 KCYS 240510
RWRWY

WYOMING REGIONAL WEATHER ROUNDUP
NATIONAL WEATHER SERVICE CHEYENNE WY
1000 PM MST FRI FEB 23 2018

NOTE:  "FAIR" INDICATES FEW OR NO CLOUDS BELOW 12,000 FEET
WITH NO SIGNIFICANT WEATHER AND/OR OBSTRUCTIONS TO VISIBILITY.

WYZ001-240600-
YELLOWSTONE NATIONAL PARK

CITY           SKY/WX    TMP DP  RH WIND       PRES   REMARKS
LK YELLOWSTONE   N/A     -9 -13  83 CALM      29.88S
W YELLOWSTONE  NOT AVBL

$$
WYZ002>013-054>058-071-098>099-240600-
NORTHERN WYOMING

CITY           SKY/WX    TMP DP  RH WIND       PRES   REMARKS
JACKSON        FAIR       9   0  67 SW14      29.96S WCI  -7
CODY           FAIR      21   2  43 NW14G21   29.86F WCI   8
GREYBULL       FAIR      -5  -9  83 CALM      29.94F
WORLAND        FAIR       0  -3  87 CALM      29.91F
SHERIDAN       FAIR      -3  -8  79 CALM      29.87F
BUFFALO        FAIR      18  -1  43 W3        29.83F
GILLETTE       FAIR      15   8  73 S16       29.87F WCI  -1
HULETT         FAIR      23  10  58 SW7       29.88F WCI  15
NEWCASTLE      FAIR      21   9  58 SE14      29.95F WCI   8

$$
WYZ014>020-022>026-101>103-240600-
CENTRAL WYOMING

CITY           SKY/WX    TMP DP  RH WIND       PRES   REMARKS
BIG PINEY      FAIR       1  -6  72 N12       29.93S WCI -16
PINEDALE       FAIR       0  -6  78 NW9       29.93S WCI -16
DUBOIS           N/A    N/A N/A N/A MISG        N/A
LANDER         FAIR       8   2  76 W10       29.89F WCI  -6
RIVERTON       FAIR       2  -3  80 NW7       29.90F WCI -11
CASPER         LGT SNOW  15  14  95 W3        29.87F FOG
DOUGLAS        MOCLDY    19  15  84 S8        29.89F WCI   9

$$
WYZ021-027>030-104>119-240600-
SOUTHERN WYOMING

CITY           SKY/WX    TMP DP  RH WIND       PRES   REMARKS
EVANSTON       FAIR       5   2  87 SW14      29.99S WCI -12
ROCK SPRINGS   FAIR      14   9  80 SW22      29.91F WCI  -4
DIXON          LGT SNOW  16  10  77 W8        29.95S WCI   5
RAWLINS        CLOUDY    13  10  88 SW20      29.86S FOG     WCI  -5
SARATOGA       CLOUDY    19  14  79 W13       29.85S WCI   7
LARAMIE        LGT SNOW  19  18  95 SE15      29.81F FOG     WCI   5
CHEYENNE       LGT SNOW  20  19  96 S6        29.87F FOG     WCI  12
TORRINGTON     CLOUDY    21  16  81 E6        29.96F WCI  13
PINE BLUFFS    MOCLDY    21  18  86 SE9       29.91F WCI  11

$$




USA.gov is the U.S. government's official web portal to all federal, state and local government web resources and services.